星链-33923 (STARLINK-33923)

导读

STARLINK-33923是美国SpaceX星链星座的一员,于2025年5月2日发射升空。星链项目旨在构建全球卫星互联网星座,为全球范围提供高速互联网服务,这款卫星延续星链技术设计,将和其他星链卫星协同,进一步完善星座覆盖能力,提升服务覆盖密度与稳定性。

基本信息
目录编号:
63786
目录名称:
STARLINK-33923
国际标识:
2025-091M
轨道中心:
EARTH
卫星名称:
星链-33923
卫星全名:
星链-33923 (STARLINK-33923)
卫星状态:
在轨 (已飞行498 天)
发射日期:
2025-05-02 UTC
国别 :
美国 (US)
星等 :
--
该卫星已列入 空间交会检测服务 Space Conjunction Data Service (SCDS) ,当前飞行风险评估等级: 无高风险
轨道信息
数据来源 国际轨道数据 AOE轨道数据
星历时间 2026-09-11T20:48:48+0800
1天前
查看轨道信息
2026-09-06T21:00:00+0800
6天前
查看轨道信息
半长轴 6861.199km 6861.227km
偏心率 0.0001694 0.0000013
轨道倾角 43.001° 43.000°
近地点辐角 268.245° 345.484°
升交点赤经 83.061° 111.260°
平近点角 91.821° 248.768°
近地点 481.899km 483.081km
远地点 484.225km 483.099km
周期 94.267分钟 94.268分钟
每日圈数 15.275758 15.275664
详细信息
固有亮度:
5
最大亮度:
2.5
卫星平台:
Starlink V1.0
覆盖范围:
全球
运营商:
太空探索技术公司
运营商所在国:
美国
制造商(研发单位):
太空探索技术公司
制造商所在国:
美国
使用方式:
暂无
卫星简介
Starlink 计划是 SpaceX 推出的全球卫星互联网项目,通过发射低轨道卫星,为全球尤其是偏远地区提供高速、低延迟的互联网服务。自 2019 年起,Starlink 已部署数千颗卫星,旨在缩小全球数字鸿沟,推动互联网普及。该项目还为军事、航空等行业提供通信支持,带来广泛经济效益。
2D轨道图
3D轨道图
轨道高度分析图
轨道倾角分析图
轨道综合分析图
查看轨道综合分析图
交会数据列表
事件ID 空间交会对象 最接近时刻(TCA) 交会距离 交会风险概率(CRP) 交会风险指数(CRI) 操作
CDM_260914-131904-378406-378622
SNUGLITE (43784)
2026-09-14T
13:19:50+0000
0.223 km
中距离
6.807478E-4 高风险 0.92
CDM_260914-233204-378406-378621
SNUGLITE (43784)
2026-09-14T
23:32:24+0000
0.772 km
远距离
5.690033E-5 中风险 0.7
CDM_260914-215804-378406-378621
SNUGLITE (43784)
2026-09-14T
21:58:09+0000
1.496 km
极远距离
6.040284E-6 低风险 0.51
CDM_260915-010604-378406-378621
SNUGLITE (43784)
2026-09-15T
01:06:38+0000
2.664 km
极远距离
1.428638E-6 低风险 0.38
CDM_260914-160506-308806-378621
2026-09-14T
16:05:49+0000
2.800 km
极远距离
1.339906E-6 低风险 0.38
与全量物体交会距离演化趋势
与全量物体交会风险概率演化趋势